Location: Clatteringshaws Loch
(55.0508°N, 4.2860°W)
Time: 06:35:57
(UTC+01:00)

ALOS - Visible Passes

Search period start: 23 July 2014 00:00
Search period end: 02 August 2014 00:00
Orbit: 687 x 691 km, 98.0° (Epoch: 22 July)

Date Brightness Start Highest point End Pass type
(mag) Time Alt. Az. Time Alt. Az. Time Alt. Az.
23 Jul 5.0 23:47:32 10° W 23:48:52 11° W 23:50:13 10° WNW visible
24 Jul 3.9 22:45:06 10° SSW 22:49:17 32° W 22:53:30 10° NNW visible
25 Jul 4.8 23:25:28 10° SW 23:28:23 16° W 23:31:19 10° NW visible
26 Jul 3.3 22:24:29 10° S 22:28:58 46° W 22:33:30 10° NNW visible
27 Jul 4.4 23:04:15 10° SW 23:07:57 23° W 23:11:41 10° NW visible
28 Jul 5.0 23:45:39 10° W 23:47:10 11° W 23:48:40 10° WNW visible
29 Jul 3.8 22:43:23 10° SSW 22:47:35 32° W 22:51:49 10° NNW visible
30 Jul 4.7 23:23:41 10° SW 23:26:40 17° W 23:29:40 10° NW visible
31 Jul 3.2 22:22:45 10° S 22:27:16 47° W 22:31:48 10° NNW visible
01 Aug 4.3 23:02:29 10° SW 23:06:14 24° W 23:10:01 10° NW visible
